Location: Arborea
(39.7744°N, 8.5819°E)
Time: 02:50:03
(UTC+00:00)

USA 229 - Pass Details

Date: 07 June 2022
Orbit: 938 x 1274 km, 63.4° (Epoch: 24 May)

Event Time Altitude Azimuth Distance (km) Brightness Sun altitude
Rises 20:53:22 0° 327° (NNW) 3,987 8.4 -18.2°
Reaches altitude 10° 20:56:02 10° 331° (NNW) 3,070 7.4 -18.5°
Maximum altitude 21:03:27 67° 53° (NE) 1,313 4.1 -19.3°
Enters shadow 21:07:48 29° 128° (SE) 2,122 4.7 -19.7°
